Dallas Paulding County Region, GA

4:59 AM EDT on July 24, 2017 (GMT -0400)
Dallas Paulding County Region

Weather History for KPUJ - April, 2014

Change the Weather History Date:

Monday, April 21, 2014

  Actual Average (KMGE) Record (KMGE)
Temperature  
Mean Temperature 66 °F -  
Max Temperature 80 °F 70 °F 86 °F (2002)
Min Temperature 53 °F 50 °F 41 °F (2013)
Cooling Degree Days 2    
Growing Degree Days 16 (Base 50)    
Moisture  
Dew Point 40 °F    
Average Humidity 41    
Maximum Humidity 58    
Minimum Humidity 23    
Precipitation  
Precipitation 0.00 in - - ()
Sea Level Pressure  
Sea Level Pressure 30.10 in    
Wind  
Wind Speed 1 mph (SW)    
Max Wind Speed 7 mph    
Max Gust Speed -    
Visibility 10 miles    
Events      
Averages and records for this station are not official NWS values.
T = Trace of Precipitation, MM = Missing Value Source: NWS Daily Summary

Daily Weather History Graph

Daily Weather History Graph

Search for Another Location

Airport or City:

Trip Planner

Search our weather history database for the weather conditions in past years. The results will help you decide how hot, cold, wet, or windy it might be!

Date:

Astronomy

Apr. 21, 2014 Rise Set
Actual Time 7:01 AM EDT 8:15 PM EDT
Civil Twilight 6:35 AM EDT 8:41 PM EDT
Nautical Twilight 6:04 AM EDT 9:12 PM EDT
Astronomical Twilight 5:32 AM EDT 9:45 PM EDT
Moon 1:41 AM EDT (4/21) 12:30 PM EDT (4/21)
Length of Visible Light 14h 06m
Length of Day
13h 13m
Waning Gibbous, 58% of the Moon is Illuminated
Apr 21
Waning Gibbous
Apr 22
Last Quarter
Apr 29
New
May 6
First Quarter
May 14
Full

Hourly Weather History & Observations

Time (EDT) Temp. Dew Point Humidity Pressure Visibility Wind Dir Wind Speed Gust Speed Precip Events Conditions
12:10 AM 60.8 °F 41.0 °F 48% 30.19 in 10.0 mi Calm Calm - N/A   Clear
12:30 AM 60.8 °F 41.0 °F 48% 30.18 in 10.0 mi Calm Calm - N/A   Clear
12:50 AM 60.8 °F 41.0 °F 48% 30.19 in 10.0 mi Calm Calm - N/A   Clear
1:10 AM 59.0 °F 41.0 °F 51% 30.19 in 10.0 mi Calm Calm - N/A   Clear
1:30 AM 59.0 °F 41.0 °F 51% 30.19 in 10.0 mi Calm Calm - N/A   Clear
1:50 AM 59.0 °F 41.0 °F 51% 30.18 in 10.0 mi Calm Calm - N/A   Clear
2:10 AM 59.0 °F 41.0 °F 51% 30.17 in 10.0 mi Calm Calm - N/A   Clear
2:30 AM 59.0 °F 41.0 °F 51% 30.16 in 10.0 mi SE 3.5 mph - N/A   Clear
2:50 AM 57.2 °F 41.0 °F 55% 30.16 in 10.0 mi ESE 4.6 mph - N/A   Clear
3:10 AM 57.2 °F 41.0 °F 55% 30.15 in 10.0 mi SE 3.5 mph - N/A   Clear
3:30 AM 55.4 °F 41.0 °F 58% 30.15 in 10.0 mi Calm Calm - N/A   Clear
3:50 AM 55.4 °F 39.2 °F 54% 30.15 in 10.0 mi Calm Calm - N/A   Clear
4:10 AM 55.4 °F 39.2 °F 54% 30.15 in 10.0 mi Calm Calm - N/A   Clear
4:30 AM 55.4 °F 37.4 °F 51% 30.15 in 10.0 mi Calm Calm - N/A   Clear
4:50 AM 55.4 °F 37.4 °F 51% 30.15 in 10.0 mi Calm Calm - N/A   Clear
5:10 AM 55.4 °F 37.4 °F 51% 30.15 in 10.0 mi Calm Calm - N/A   Clear
5:30 AM 55.4 °F 37.4 °F 51% 30.15 in 10.0 mi Calm Calm - N/A   Clear
6:10 AM 53.6 °F 37.4 °F 54% 30.15 in 10.0 mi Calm Calm - N/A   Clear
6:30 AM 53.6 °F 37.4 °F 54% 30.16 in 10.0 mi Calm Calm - N/A   Clear
6:50 AM 55.4 °F 37.4 °F 51% 30.16 in 10.0 mi ESE 3.5 mph - N/A   Clear
7:10 AM 53.6 °F 37.4 °F 54% 30.18 in 10.0 mi Calm Calm - N/A   Clear
7:30 AM 53.6 °F 37.4 °F 54% 30.18 in 10.0 mi Calm Calm - N/A   Clear
7:50 AM 55.4 °F 39.2 °F 54% 30.19 in 10.0 mi Calm Calm - N/A   Clear
8:10 AM 55.4 °F 37.4 °F 51% 30.20 in 10.0 mi Calm Calm - N/A   Clear
8:30 AM 57.2 °F 37.4 °F 48% 30.20 in 10.0 mi Calm Calm - N/A   Clear
8:50 AM 59.0 °F 37.4 °F 45% 30.20 in 10.0 mi Calm Calm - N/A   Clear
9:10 AM 59.0 °F 37.4 °F 45% 30.19 in 10.0 mi Calm Calm - N/A   Clear
9:50 AM 62.6 °F 39.2 °F 42% 30.19 in 10.0 mi SE 3.5 mph - N/A   Clear
10:10 AM 64.4 °F 37.4 °F 37% 30.19 in 10.0 mi SSE 5.8 mph - N/A   Clear
10:30 AM 64.4 °F 37.4 °F 37% 30.19 in 10.0 mi SSE 4.6 mph - N/A   Clear
10:50 AM 68.0 °F 37.4 °F 33% 30.19 in 10.0 mi ESE 3.5 mph - N/A   Clear
11:10 AM 68.0 °F 37.4 °F 33% 30.18 in 10.0 mi Calm Calm - N/A   Clear
11:30 AM 69.8 °F 35.6 °F 28% 30.18 in 10.0 mi South 5.8 mph - N/A   Clear
11:50 AM 69.8 °F 35.6 °F 28% 30.17 in 10.0 mi South 4.6 mph - N/A   Clear
12:10 PM 71.6 °F 37.4 °F 29% 30.16 in 10.0 mi Calm Calm - N/A   Clear
12:30 PM 71.6 °F 35.6 °F 27% 30.15 in 10.0 mi WSW 3.5 mph - N/A   Clear
12:50 PM 73.4 °F 35.6 °F 25% 30.14 in 10.0 mi WSW 5.8 mph - N/A   Clear
1:10 PM 73.4 °F 37.4 °F 27% 30.13 in 10.0 mi Calm Calm - N/A   Clear
1:30 PM 73.4 °F 37.4 °F 27% 30.12 in 10.0 mi NNW 4.6 mph - N/A   Clear
1:50 PM 75.2 °F 37.4 °F 25% 30.10 in 10.0 mi South 5.8 mph - N/A   Clear
2:10 PM 75.2 °F 37.4 °F 25% 30.09 in 10.0 mi ENE 4.6 mph - N/A   Clear
2:50 PM 77.0 °F 37.4 °F 24% 30.08 in 10.0 mi Calm Calm - N/A   Clear
3:10 PM 78.8 °F 37.4 °F 23% 30.07 in 10.0 mi Calm Calm - N/A   Clear
3:30 PM 78.8 °F 37.4 °F 23% 30.06 in 10.0 mi Calm Calm - N/A   Clear
3:50 PM 78.8 °F 37.4 °F 23% 30.05 in 10.0 mi South 4.6 mph - N/A   Clear
4:10 PM 80.6 °F 39.2 °F 23% 30.04 in 10.0 mi East 3.5 mph - N/A   Clear
4:30 PM 78.8 °F 41.0 °F 26% 30.03 in 10.0 mi NW 6.9 mph - N/A   Clear
4:50 PM 78.8 °F 39.2 °F 24% 30.03 in 10.0 mi Calm Calm - N/A   Clear
5:10 PM 78.8 °F 39.2 °F 24% 30.03 in 10.0 mi WSW 5.8 mph - N/A   Clear
5:30 PM 78.8 °F 39.2 °F 24% 30.02 in 10.0 mi WNW 6.9 mph - N/A   Clear
5:50 PM 78.8 °F 39.2 °F 24% 30.02 in 10.0 mi West 5.8 mph - N/A   Clear
6:10 PM 78.8 °F 39.2 °F 24% 30.02 in 10.0 mi West 3.5 mph - N/A   Clear
6:30 PM 77.0 °F 41.0 °F 28% 30.02 in 10.0 mi NW 3.5 mph - N/A   Clear
6:50 PM 77.0 °F 41.0 °F 28% 30.00 in 10.0 mi NW 3.5 mph - N/A   Clear
7:10 PM 77.0 °F 41.0 °F 28% 30.00 in 10.0 mi WNW 3.5 mph - N/A   Scattered Clouds
7:30 PM 77.0 °F 42.8 °F 29% 30.00 in 10.0 mi NW 4.6 mph - N/A   Mostly Cloudy
7:50 PM 73.4 °F 44.6 °F 36% 30.00 in 10.0 mi NNW 5.8 mph - N/A   Scattered Clouds
8:10 PM 71.6 °F 46.4 °F 41% 30.00 in 10.0 mi NNW 4.6 mph - N/A   Clear
8:30 PM 69.8 °F 46.4 °F 43% 30.00 in 10.0 mi Calm Calm - N/A   Clear
8:50 PM 69.8 °F 46.4 °F 43% 30.00 in 10.0 mi Calm Calm - N/A   Clear
9:10 PM 68.0 °F 48.2 °F 49% 30.00 in 10.0 mi Calm Calm - N/A   Clear
9:30 PM 68.0 °F 46.4 °F 46% 30.00 in 10.0 mi Calm Calm - N/A   Clear
9:50 PM 64.4 °F 48.2 °F 56% 30.00 in 10.0 mi SW 3.5 mph - N/A   Clear
10:10 PM 66.2 °F 48.2 °F 52% 30.00 in 10.0 mi Calm Calm - N/A   Clear
10:30 PM 64.4 °F 48.2 °F 56% 30.00 in 10.0 mi Calm Calm - N/A   Scattered Clouds
10:50 PM 64.4 °F 48.2 °F 56% 30.00 in 10.0 mi Calm Calm - N/A   Clear
11:10 PM 64.4 °F 48.2 °F 56% 29.99 in 10.0 mi West 3.5 mph - N/A   Clear
11:30 PM 66.2 °F 46.4 °F 49% 29.99 in 10.0 mi West 3.5 mph - N/A   Clear
11:50 PM 64.4 °F 48.2 °F 56% 29.99 in 10.0 mi Calm Calm - N/A   Clear